EW1423 Weather Reports


time (UTC)temp
C
wind
direction
speed
KPH
gust
KPH
rain 1hr
cm
rain 24hr
cm
rain mn
cm
humidity
%
barometer
mb
20260507010304 10 61 0.0 1.6 0.00 0.48 0.00 98 1010.5
20260507004804 10 82 0.0 1.6 0.00 0.51 0.00 97 1010.4
20260507004304 10 82 1.6 8.0 0.00 0.51 0.00 96 1010.4
20260507002306 10 154 1.6 4.8 0.00 0.51 0.00 96 1010.4
20260507001803 10 249 0.0 1.6 0.00 0.51 0.00 97 1010.4
20260507001304 10 242 1.6 4.8 0.00 0.51 0.00 96 1010.4
20260507000306 10 277 0.0 0.0 0.00 0.51 0.00 96 1010.4
20260506235803 10 277 0.0 0.0 0.00 0.51 0.00 96 1010.4
20260506235306 10 277 1.6 8.0 0.00 0.51 0.00 95 1010.4
20260506234803 10 220 0.0 3.2 0.00 0.51 0.00 95 1010.4
20260506233803 10 261 0.0 1.6 0.00 0.51 0.00 96 1010.4
20260506233304 10 261 0.0 0.0 0.00 0.51 0.00 96 1010.4
20260506232306 10 261 0.0 3.2 0.00 0.51 0.00 95 1010.5
20260506231804 10 261 1.6 8.0 0.00 0.51 0.00 93 1010.5
20260506231303 10 298 1.6 4.8 0.00 0.51 0.00 94 1010.5
20260506230803 10 236 0.0 3.2 0.00 0.51 0.00 94 1010.5
20260506230304 10 270 1.6 4.8 0.00 0.51 0.00 94 1010.5
20260506225803 10 315 1.6 8.0 0.00 0.51 0.00 94 1010.4
20260506225305 10 304 1.6 8.0 0.00 0.51 0.00 94 1010.4
20260506224803 10 206 1.6 4.8 0.00 0.51 0.00 95 1010.3
20260506224304 10 173 1.6 1.6 0.00 0.51 0.00 95 1010.3
20260506223803 10 170 0.0 1.6 0.00 0.51 0.00 95 1010.3
20260506223304 10 162 1.6 8.0 0.00 0.51 0.00 95 1010.3
20260506222804 10 312 3.2 4.8 0.00 0.51 0.00 95 1010.3
20260506222306 10 12 0.0 1.6 0.00 0.51 0.00 97 1010.3
20260506221818 10 12 0.0 0.0 0.00 0.51 0.00 97 1010.3
20260506221304 10 12 0.0 1.6 0.00 0.51 0.00 97 1010.1
20260506220810 10 12 0.0 4.8 0.00 0.51 0.00 96 1010.1
20260506220305 10 277 1.6 4.8 0.00 0.51 0.00 95 1010.1
20260506215803 10 317 1.6 3.2 0.00 0.51 0.51 96 1010.1
20260506215306 10 317 0.0 4.8 0.00 0.51 0.51 95 1010.1
20260506214803 10 186 0.0 1.6 0.00 0.51 0.51 95 1010.0
20260506212803 10 159 0.0 3.2 0.03 0.51 0.51 96 1009.6
20260506212306 10 159 0.0 3.2 0.03 0.51 0.51 96 1009.6
20260506211304 11 195 1.6 3.2 0.03 0.51 0.51 95 1009.6
20260506210304 11 279 0.0 3.2 0.03 0.51 0.51 96 1009.3
20260506205804 11 43 1.6 3.2 0.03 0.51 0.51 95 1009.3
20260506205306 11 42 1.6 4.8 0.03 0.51 0.51 97 1009.3
20260506204804 11 320 1.6 4.8 0.03 0.51 0.51 96 1009.3
20260506203303 10 128 1.6 8.0 0.00 0.48 0.48 96 1009.3
20260506202306 10 302 0.0 1.6 0.00 0.48 0.48 96 1009.3
20260506201304 10 302 1.6 3.2 0.03 0.48 0.48 97 1009.3
20260506200803 10 302 1.6 3.2 0.03 0.48 0.48 97 1009.3
20260506200304 10 302 0.0 3.2 0.05 0.48 0.48 98 1009.3
20260506195306 10 277 1.6 4.8 0.05 0.48 0.48 97 1009.3
20260506194803 10 342 0.0 1.6 0.05 0.48 0.48 97 1009.3
20260506194303 10 342 0.0 3.2 0.05 0.48 0.48 97 1009.3
20260506193804 10 55 1.6 3.2 0.08 0.48 0.48 97 1009.3
20260506193304 10 344 1.6 3.2 0.10 0.48 0.48 96 1008.8
20260506192803 10 344 0.0 3.2 0.10 0.48 0.48 96 1008.8
20260506192305 10 319 0.0 4.8 0.13 0.48 0.48 97 1008.8
20260506191804 10 328 0.0 3.2 0.10 0.46 0.46 98 1008.8
20260506190803 11 329 1.6 4.8 0.13 0.46 0.46 97 1008.6
20260506190304 11 282 1.6 8.0 0.10 0.43 0.43 97 1008.4
20260506185804 11 291 1.6 8.0 0.10 0.43 0.43 97 1008.4
20260506185306 11 136 3.2 8.0 0.08 0.43 0.43 97 1008.4
20260506184804 11 161 3.2 8.0 0.10 0.43 0.43 97 1008.3
20260506184303 11 59 1.6 4.8 0.10 0.43 0.43 96 1008.3
20260506183304 11 61 1.6 4.8 0.05 0.38 0.38 96 1008.2
20260506182804 11 61 1.6 8.0 0.05 0.38 0.38 97 1008.1
20260506182306 11 182 1.6 3.2 0.05 0.36 0.36 97 1008.1
20260506181803 11 321 1.6 9.7 0.05 0.36 0.36 97 1008.0
20260506180803 11 308 1.6 3.2 0.08 0.33 0.33 97 1007.9
20260506175306 11 301 1.6 8.0 0.13 0.36 0.33 95 1007.9
20260506174804 12 280 1.6 8.0 0.10 0.33 0.33 97 1007.9
20260506174304 12 81 1.6 8.0 0.10 0.33 0.33 97 1007.9
20260506173803 12 271 0.0 3.2 0.13 0.36 0.33 97 1007.8
20260506173304 12 273 1.6 4.8 0.13 0.38 0.33 97 1007.7
20260506172306 12 36 0.0 3.2 0.10 0.41 0.30 97 1007.8
20260506171803 12 297 3.2 8.0 0.13 0.43 0.30 96 1007.8
20260506171304 12 288 3.2 8.0 0.08 0.41 0.25 97 1007.7
20260506170804 12 267 1.6 4.8 0.10 0.41 0.25 97 1007.7
20260506165804 12 205 1.6 4.8 0.13 0.38 0.23 96 1007.6
20260506165305 12 292 3.2 4.8 0.13 0.36 0.23 95 1007.6
20260506164304 12 285 0.0 4.8 0.15 0.36 0.23 95 1007.6
20260506163804 12 200 0.0 3.2 0.15 0.33 0.20 95 1007.3
20260506162804 12 288 1.6 3.2 0.15 0.33 0.20 95 1007.3
20260506162306 12 288 0.0 3.2 0.15 0.33 0.20 95 1007.3
20260506161803 12 288 1.6 3.2 0.15 0.33 0.18 95 1007.3
20260506161303 13 288 0.0 3.2 0.15 0.33 0.18 94 1007.3
20260506160803 13 286 1.6 3.2 0.15 0.30 0.15 93 1007.3
20260506160304 13 287 0.0 1.6 0.13 0.28 0.15 92 1007.3
20260506155807 13 287 0.0 1.6 0.10 0.25 0.13 91 1007.3
20260506155306 13 287 1.6 3.2 0.08 0.23 0.10 90 1007.3
20260506154303 13 287 0.0 1.6 0.05 0.23 0.08 91 1007.3
20260506153804 13 287 0.0 1.6 0.05 0.20 0.05 91 1007.3
20260506153304 13 287 0.0 1.6 0.05 0.20 0.05 90 1007.3
20260506152804 13 287 0.0 0.0 0.05 0.20 0.05 90 1007.3
20260506152305 13 287 0.0 3.2 0.03 0.18 0.05 90 1007.3
20260506151303 14 279 1.6 4.8 0.00 0.15 0.03 83 1007.1
20260506150804 14 276 1.6 3.2 0.00 0.15 0.03 83 1007.1
20260506150305 14 259 0.0 3.2 0.00 0.15 0.03 85 1007.1
20260506145804 14 259 0.0 1.6 0.00 0.15 0.03 85 1007.1
20260506145305 14 259 0.0 3.2 0.00 0.15 0.03 83 1006.7
20260506144804 14 259 0.0 1.6 0.00 0.15 0.03 84 1006.7
20260506144304 14 259 0.0 4.8 0.00 0.18 0.03 83 1006.7
20260506143803 15 273 1.6 8.0 0.00 0.18 0.03 83 1006.6
20260506143304 15 303 1.6 8.0 0.00 0.18 0.03 82 1006.6
20260506142803 15 316 1.6 4.8 0.00 0.18 0.03 80 1006.5
20260506142306 15 304 1.6 8.0 0.00 0.18 0.03 79 1006.5
20260506141804 15 327 1.6 8.0 0.00 0.18 0.03 78 1006.5
20260506141304 15 329 3.2 8.0 0.00 0.18 0.03 79 1006.5
20260506140804 16 296 1.6 16.1 0.00 0.18 0.03 76 1006.4
20260506140303 16 321 3.2 8.0 0.00 0.20 0.03 75 1006.4
20260506135306 16 315 3.2 12.9 0.00 0.20 0.03 72 1005.6
20260506134303 17 296 3.2 11.3 0.00 0.23 0.03 67 1005.6
20260506133803 18 318 3.2 9.7 0.00 0.23 0.03 66 1005.6
20260506133304 18 289 3.2 9.7 0.00 0.25 0.03 66 1005.6
20260506132804 18 330 1.6 8.0 0.00 0.28 0.03 65 1005.6
20260506131803 18 266 1.6 8.0 0.00 0.28 0.03 62 1005.6
20260506131304 18 295 3.2 8.0 0.00 0.28 0.03 62 1005.6
20260506130804 18 220 0.0 1.6 0.00 0.30 0.03 62 1005.5
20260506130304 18 220 0.0 4.8 0.00 0.30 0.03 59 1005.4
20260506125804 18 220 1.6 4.8 0.00 0.33 0.03 57 1005.4
20260506125305 18 220 1.6 3.2 0.00 0.51 0.03 60 1005.4
20260506124804 18 215 1.6 3.2 0.00 0.89 0.03 59 1005.3
20260506124304 18 214 1.6 4.8 0.00 0.99 0.03 56 1005.3
20260506123804 18 206 0.0 1.6 0.00 0.99 0.03 59 1005.3
20260506123303 18 168 0.0 3.2 0.00 0.99 0.03 59 1005.3
20260506122305 18 226 0.0 1.6 0.00 0.99 0.03 61 1005.4
20260506121303 19 226 0.0 1.6 0.00 0.99 0.03 56 1005.6
20260506120803 19 226 0.0 1.6 0.00 0.99 0.03 58 1005.6
20260506120304 19 233 1.6 3.2 0.00 0.99 0.03 56 1005.6
20260506115306 19 158 0.0 3.2 0.00 0.99 0.03 60 1005.6
20260506114304 19 109 0.0 4.8 0.00 0.99 0.03 55 1005.8
20260506113804 20 115 1.6 4.8 0.00 0.99 0.03 56 1005.8
20260506113304 19 130 1.6 4.8 0.00 0.99 0.03 56 1005.8
20260506112804 19 261 1.6 4.8 0.00 0.99 0.03 58 1006.0
20260506112306 19 117 1.6 3.2 0.00 0.99 0.03 56 1006.0
20260506111803 19 117 1.6 3.2 0.00 0.99 0.03 58 1006.0
20260506111304 19 170 1.6 8.0 0.00 0.99 0.03 56 1006.0
20260506110803 20 125 1.6 4.8 0.00 0.99 0.03 56 1006.0
20260506105803 20 84 3.2 8.0 0.00 0.99 0.03 61 1006.5
20260506105305 20 188 1.6 8.0 0.00 0.99 0.03 59 1006.5
20260506104804 19 171 3.2 8.0 0.00 0.99 0.03 61 1006.5
20260506104304 19 114 1.6 4.8 0.00 0.99 0.03 64 1006.5
20260506103804 19 18 1.6 8.0 0.00 0.99 0.03 67 1006.5
20260506102804 18 107 0.0 3.2 0.00 0.99 0.03 72 1006.5
20260506101803 18 128 1.6 3.2 0.00 0.99 0.03 65 1006.5
20260506101303 18 128 1.6 8.0 0.00 0.99 0.03 68 1006.5
20260506100803 18 170 1.6 8.0 0.00 0.99 0.03 68 1006.5
20260506095804 18 319 1.6 4.8 0.00 0.99 0.03 69 1006.6
20260506094804 18 55 1.6 3.2 0.00 0.99 0.03 69 1006.6
20260506094303 18 55 1.6 4.8 0.00 0.99 0.03 75 1006.6
20260506093804 17 56 3.2 8.0 0.00 0.99 0.03 74 1006.6
20260506093304 18 105 1.6 8.0 0.00 0.99 0.03 74 1006.6
20260506092306 17 168 1.6 4.8 0.00 0.99 0.03 76 1006.7
20260506091804 17 117 1.6 4.8 0.00 0.99 0.03 75 1006.7
20260506085804 15 84 1.6 8.0 0.00 0.99 0.03 80 1006.7
20260506085306 15 115 1.6 4.8 0.00 0.99 0.03 81 1006.7
20260506084805 16 115 0.0 3.2 0.00 0.99 0.03 81 1006.7
20260506084304 15 117 1.6 3.2 0.00 0.99 0.03 81 1006.7
20260506083805 15 120 1.6 4.8 0.00 0.99 0.03 81 1006.7
20260506083304 15 74 1.6 4.8 0.00 0.99 0.03 82 1006.7
20260506081805 15 70 1.6 4.8 0.00 0.99 0.03 82 1006.7
20260506081304 16 84 1.6 3.2 0.00 0.99 0.03 80 1006.7
20260506080804 16 84 1.6 3.2 0.00 0.99 0.03 81 1006.7
20260506080305 16 84 0.0 3.2 0.00 0.99 0.03 79 1006.7
20260506073304 15 110 1.6 4.8 0.00 0.99 0.03 82 1006.9
20260506072805 15 110 0.0 1.6 0.00 0.99 0.03 84 1006.9
20260506072306 14 110 0.0 4.8 0.00 0.99 0.03 86 1006.9
20260506071304 13 110 1.6 3.2 0.00 0.99 0.03 91 1007.0
20260506070303 12 110 1.6 4.8 0.00 0.99 0.03 94 1006.8
20260506062305 11 101 1.6 3.2 0.00 0.99 0.03 99 1007.0
20260506061804 10 101 0.0 1.6 0.00 0.99 0.03 100 1007.0
20260506061303 10 101 0.0 1.6 0.00 0.99 0.03 100 1007.0
20260506060804 10 101 0.0 1.6 0.00 0.99 0.03 100 1006.8
20260506060303 10 101 0.0 1.6 0.00 0.99 0.03 100 1006.8
20260506051303 9 101 0.0 3.2 0.00 0.99 0.03 100 1007.2
20260506050804 8 101 0.0 1.6 0.00 0.99 0.03 100 1007.2
20260506050303 9 101 0.0 1.6 0.00 0.99 0.03 100 1007.2
20260506044804 8 101 0.0 3.2 0.00 0.99 0.03 100 1007.2
20260506043803 8 101 1.6 4.8 0.00 0.99 0.03 100 1007.2
20260506043303 8 101 0.0 1.6 0.00 0.99 0.03 100 1007.4
20260506042803 8 101 0.0 0.0 0.00 0.99 0.03 100 1007.4
20260506042305 8 101 0.0 0.0 0.00 0.99 0.03 100 1007.4
20260506041803 8 101 0.0 1.6 0.00 0.99 0.03 100 1007.4
20260506041304 8 101 0.0 0.0 0.00 0.99 0.03 100 1007.4
20260506040804 8 101 0.0 0.0 0.00 0.99 0.03 100 1007.4
20260506040304 8 101 0.0 0.0 0.00 0.99 0.03 100 1007.4
20260506035803 9 101 0.0 0.0 0.00 0.99 0.03 100 1007.4
20260506035306 9 101 0.0 1.6 0.00 0.99 0.03 100 1007.5
20260506034819 9 101 0.0 1.6 0.00 0.99 0.03 100 1007.5
20260506033303 9 101 1.6 3.2 0.00 0.99 0.03 100 1007.6
20260506032803 9 111 1.6 3.2 0.00 0.99 0.03 100 1007.6
20260506032305 9 124 1.6 3.2 0.00 0.99 0.03 100 1007.6
20260506031804 9 130 1.6 3.2 0.00 0.99 0.03 100 1007.6
20260506031304 9 130 0.0 1.6 0.00 0.99 0.03 100 1007.6
20260506030804 9 130 0.0 1.6 0.00 0.99 0.03 100 1007.3
20260506030303 9 130 1.6 4.8 0.00 0.99 0.03 100 1007.3
20260506025804 9 130 0.0 3.2 0.00 0.99 0.03 100 1007.3
20260506025305 9 298 0.0 1.6 0.00 0.99 0.03 100 1007.3
20260506024304 9 297 0.0 1.6 0.00 0.99 0.03 100 1007.3
20260506023803 9 297 0.0 4.8 0.00 0.99 0.03 100 1008.1
20260506023304 9 95 0.0 3.2 0.00 0.99 0.03 100 1008.1
20260506022305 9 95 0.0 1.6 0.00 0.99 0.03 100 1008.1
20260506021803 9 95 0.0 0.0 0.00 0.99 0.03 100 1008.1
20260506021304 9 95 0.0 1.6 0.00 0.99 0.03 100 1008.1
20260506020803 10 95 0.0 1.6 0.00 0.99 0.03 100 1008.1
20260506020304 10 95 0.0 1.6 0.00 0.99 0.03 100 1008.1
20260506015804 10 95 0.0 1.6 0.00 0.99 0.03 100 1008.0
20260506015306 10 95 1.6 3.2 0.00 0.99 0.03 100 1008.0
20260506014803 10 70 0.0 1.6 0.00 0.99 0.03 100 1008.0
20260506014304 10 70 0.0 1.6 0.03 0.99 0.03 100 1008.0
20260506013304 9 69 0.0 3.2 0.03 0.99 0.03 100 1008.1
20260506012803 9 56 0.0 3.2 0.03 0.99 0.03 100 1008.1
20260506012307 9 56 1.6 3.2 0.03 0.99 0.03 100 1008.1
20260506011804 9 55 1.6 3.2 0.03 0.99 0.03 100 1008.1
20260506010803 9 11 0.0 1.6 0.03 0.99 0.03 100 1008.1